This demonstration page uses our WeatherBlox Daily Observations layout. Learn more.

Left ArrowRight Arrow

41.12389, -100.76542

Hourly Observations for August 1, 2018

Temp ( °F °C ) Dew Point ( °F °C ) Humidity (%) Winds ( mph kmh ) Pressure ( in mb ) Visibility ( mi km ) Precip ( " mm )
12:53 am 00:53 Clear 63 17.2 56 13.3 78 78 SSW 8 13 30.04 1017 10 16 0.00 0.00
1:53 am 01:53 Clear 63 17.2 56 13.3 78 78 SW 3 6 30.03 1017 10 16 0.00 0.00
2:53 am 02:53 Clear 59 15 56 13.3 90 90 Calm 30.03 1017 10 16 0.00 0.00
3:53 am 03:53 Clear 63 17.2 56 13.3 78 78 WNW 5 7 30.01 1016 10 16 0.00 0.00
4:53 am 04:53 Clear 58 14.4 55 12.8 90 90 NNW 3 6 30.01 1016 10 16 0.00 0.00
5:53 am 05:53 Clear 57 13.9 54 12.2 90 90 NW 3 6 30.02 1017 10 16 0.00 0.00
6:53 am 06:53 Sunny 53 11.7 53 11.7 100 100 Calm 30.03 1017 10 16 0.00 0.00
7:53 am 07:53 Sunny 59 15 58 14.4 96 96 Calm 30.03 1017 10 16 0.00 0.00
8:53 am 08:53 Sunny 67 19.4 61 16.1 81 81 NW 3 6 30.03 1017 10 16 0.00 0.00
9:53 am 09:53 Sunny 71 21.7 61 16.1 71 71 NW 6 9 30.04 1017 10 16 0.00 0.00
10:53 am 10:53 Sunny 75 23.9 64 17.8 69 69 NW 6 9 30.03 1017 10 16 0.00 0.00
11:53 am 11:53 Sunny 80 26.7 67 19.4 64 64 NNW 3 6 30.02 1017 10 16 0.00 0.00
12:53 pm 12:53 Sunny 83 28.3 68 20 61 61 VRB 3 6 30.01 1016 10 16 0.00 0.00
1:53 pm 13:53 Sunny 87 30.6 58 14.4 37 37 S 6 9 29.99 1016 10 16 0.00 0.00
2:53 pm 14:53 Sunny 88 31.1 60 15.6 39 39 ENE 3 6 29.98 1015 10 16 0.00 0.00
3:53 pm 15:53 Sunny 89 31.7 59 15 36 36 Calm 29.96 1015 10 16 0.00 0.00
4:53 pm 16:53 Sunny 89 31.7 59 15 36 36 SSE 6 9 29.96 1014 10 16 0.00 0.00
5:53 pm 17:53 Sunny 89 31.7 62 16.7 41 41 Calm 29.96 1014 10 16 0.00 0.00
6:53 pm 18:53 Sunny 83 28.3 66 18.9 57 57 SSE 6 9 29.97 1015 10 16 0.00 0.00
7:53 pm 19:53 Sunny 81 27.2 68 20 65 65 SSE 3 6 29.96 1015 10 16 0.00 0.00
8:53 pm 20:53 Sunny 74 23.3 68 20 82 82 Calm 29.96 1015 10 16 0.00 0.00
9:53 pm 21:53 Clear 67 19.4 64 17.8 91 91 ESE 5 7 29.98 1015 10 16 0.00 0.00
10:53 pm 22:53 Clear 64 17.8 62 16.7 93 93 ESE 6 9 29.98 1015 10 16 0.00 0.00
11:53 pm 23:53 Clear 64 17.8 62 16.7 93 93 SE 5 7 29.98 1015 10 16 0.00 0.00

Powered by AerisWeather